Find Starlink 30537

NORAD ID: 57991 Int'l Des: 2023-153 Owner: SPXS Country: US Constellation: starlink operational
LEOCIRCULAR

リアルタイム位置

3D地球を読み込み中...

Starlink 30537について

説明を読み込み中...

次回通過

Passes for default location (London). Set your location on the main map for personalized predictions.

高度履歴

Loading altitude history...

軌道要素

1 57991U 23153A 26123.26299437 .00001282 00000-0 56091-4 0 9999
2 57991 43.0016 118.7722 0001261 270.4118 89.6589 15.27575936143146
Epoch: May 3, 2026 • Age: 19 hours

現在のステータス

高度 494.2 km
速度 7.62 km/s
衛星直下点 -39.83°S, 177.08°E
打ち上げ日 Oct 5, 2023
運用期間 2.5 years
タイプ internet

技術仕様

分類 Payload
質量 730.00 kg
乾燥質量 700.00 kg
総質量 730.00 kg
長さ 0.30 m
直径 4.10 m
スパン 29.00 m
形状 Box + pan
製造者 SPXS
バスタイプ Starlink V2M
フェーズステータス In Orbit
所有者/国 SPXS/US

Most Searched